TimeCDT,TemperatureF,Dew PointF,Humidity,Sea Level PressureIn,VisibilityMPH,Wind Direction,Wind SpeedMPH,Gust SpeedMPH,PrecipitationIn,Events,Conditions,WindDirDegrees,DateUTC
12:00 AM,62.6,51.8,68,29.57,15.0,SE,21.9,27.6,N/A,,Scattered Clouds,140,2013-09-23 05:00:00
1:00 AM,66,55,60,29.54,,Calm,Calm,,,,,,2013-09-23 06:00:00
1:00 AM,66.2,53.6,64,29.55,15.0,SSE,21.9,33.4,N/A,,Mostly Cloudy,160,2013-09-23 06:00:00
2:00 AM,66.2,53.6,64,29.54,15.0,SSE,26.5,33.4,N/A,,Overcast,160,2013-09-23 07:00:00
3:00 AM,66.2,53.6,64,29.55,15.0,SSE,20.7,27.6,N/A,,Overcast,160,2013-09-23 08:00:00
4:00 AM,66.2,53.6,64,29.56,15.0,South,18.4,25.3,N/A,,Mostly Cloudy,170,2013-09-23 09:00:00
5:00 AM,64.4,53.6,68,29.56,15.0,SSE,15.0,23.0,N/A,,Overcast,160,2013-09-23 10:00:00
6:00 AM,62.6,53.6,72,29.57,15.0,SSE,12.7,18.4,N/A,,Mostly Cloudy,160,2013-09-23 11:00:00
7:00 AM,65,54,59,29.58,,Calm,Calm,,,,,,2013-09-23 12:00:00
7:00 AM,64.4,51.8,64,29.58,15.0,South,20.7,27.6,N/A,,Mostly Cloudy,170,2013-09-23 12:00:00
8:00 AM,64.4,51.8,64,29.60,15.0,South,20.7,28.8,N/A,,Mostly Cloudy,170,2013-09-23 13:00:00
9:00 AM,64.4,51.8,64,29.60,15.0,South,20.7,27.6,N/A,,Mostly Cloudy,170,2013-09-23 14:00:00
10:00 AM,66.2,51.8,60,29.62,15.0,South,15.0,26.5,N/A,,Mostly Cloudy,180,2013-09-23 15:00:00
11:00 AM,71.6,53.6,53,29.62,15.0,SSW,17.3,25.3,N/A,,Mostly Cloudy,200,2013-09-23 16:00:00
12:00 PM,73.4,53.6,50,29.60,15.0,SSE,23.0,29.9,N/A,,Overcast,150,2013-09-23 17:00:00
1:00 PM,74,55,41,29.57,,Calm,Calm,,,,,,2013-09-23 18:00:00
1:00 PM,75.2,53.6,47,29.58,15.0,SSE,25.3,35.7,N/A,,Overcast,160,2013-09-23 18:00:00
2:00 PM,77.0,53.6,44,29.58,15.0,South,19.6,34.5,N/A,,Mostly Cloudy,170,2013-09-23 19:00:00
3:00 PM,78.8,53.6,42,29.57,-9999.0,SSE,28.8,39.1,N/A,,Scattered Clouds,160,2013-09-23 20:00:00
4:00 PM,78.8,51.8,39,29.56,-9999.0,South,26.5,39.1,N/A,,Mostly Cloudy,180,2013-09-23 21:00:00
5:00 PM,78.8,51.8,39,29.56,15.0,South,24.2,41.4,N/A,,Mostly Cloudy,180,2013-09-23 22:00:00
6:00 PM,78.8,51.8,39,29.57,15.0,South,28.8,41.4,N/A,,Mostly Cloudy,180,2013-09-23 23:00:00
7:00 PM,75,54,38,29.57,,Calm,Calm,,,,,,2013-09-24 00:00:00
7:00 PM,75.2,51.8,44,29.58,15.0,South,17.3,26.5,N/A,,Mostly Cloudy,180,2013-09-24 00:00:00
8:00 PM,73.4,51.8,47,29.59,15.0,South,23.0,29.9,N/A,,Mostly Cloudy,180,2013-09-24 01:00:00
9:00 PM,73.4,51.8,47,29.60,15.0,South,24.2,33.4,N/A,,Mostly Cloudy,180,2013-09-24 02:00:00
10:00 PM,71.6,53.6,53,29.62,15.0,South,21.9,-,N/A,,Overcast,180,2013-09-24 03:00:00
11:00 PM,64.4,57.2,77,29.67,15.0,West,20.7,28.8,N/A,,Overcast,260,2013-09-24 04:00:00